Tracking 31027 objects as of 19-Jul-2025
HD Live streaming from Space Station
objects crossing your sky now

GORIZONT 30

Track GORIZONT 30 now!
GORIZONT 30 is classified as:


NORAD ID: 23108
Int'l Code: 1994-030A
Perigee: 35,780.6 km
Apogee: 35,814.5 km
Inclination: 14.2 °
Period: 1,436.3 minutes
Semi major axis: 42168 km
RCS: 12.5892 m2 (large)
Launch date: May 20, 1994
Source: Commonwealth of Independent States (former USSR) (CIS)
Launch site: TYURATAM MISSILE AND SPACE COMPLEX (TTMTR)
Your satellite tracking list
SL-12 R/B(AUX MOTOR)
Track 1 satellite(s)




NASA's NSSDC Master Catalog

Two Line Element Set (TLE):
1 23108U 94030A   25199.18447667 -.00000162  00000-0  00000-0 0  9999
2 23108  14.1968 350.6714 0004025 251.9785 102.5488  1.00258282114102
Source of the keplerian elements: AFSPC